Flag for Germany Past Weather in Geislingen an der Steige, Baden-Württemberg, Germany — Yesterday and Last 2 Weeks

Now
70 °F

Mild.


Feels Like: 70 °F
Forecast: 65 / 87 °F
Wind: 1 mph from South

Location: Laupheim Airport

Current Time: Aug 27, 2016 at 10:27:53 AM

Latest Report: Aug 27, 2016 at 9:20 AM


Visibility: 3 mi

Pressure: 30.15 "Hg

Humidity: 78%

Dew Point: 63 °F

Location of Geislingen an der SteigeLocation

Past Weather in Geislingen an der Steige — Graph

°F

Geislingen an der Steige Temperature Yesterday

Maximum temperature yesterday: 88 °F (at 4:20 PM)
Minimum temperature yesterday: 57 °F (at 5:20 AM)
Average temperature yesterday: 72 °F

High & Low Weather Summary for the Past Weeks

 TemperatureHumidityPressure
High88 °F (Aug 26, 4:20 PM)100% (Aug 13, 5:20 AM)30.42 "Hg (Aug 13, 5:20 AM)
Low50 °F (Aug 13, 5:20 AM)40% (Aug 26, 5:20 PM)29.86 "Hg (Aug 18, 4:20 AM)
Average66 °F74%30.14 "Hg
* Reported Aug 12 8:20 AM — Aug 27 8:20 AM, Geislingen an der Steige, Weather by CustomWeather, © 2016

Note: Actual official high and low records may vary slightly from our data, if they occured in-between our weather recording intervals... More about our weather records

Advertising

Geislingen an der Steige Weather History for the Previous 24 Hours

Scroll right to see more
 ConditionsComfort  
Time TempWeatherWind HumidityBarometerVisibility
8:20 AM
Sat, Aug 27
64 °FMild.2 mph88%30.12 "Hg3 mi
7:20 AM61 °FCool.No wind94%30.12 "Hg3 mi
6:20 AM61 °FCool.1 mph94%30.12 "Hg0 mi
5:20 AM61 °FCool.No wind94%30.12 "Hg0 mi
4:20 AM63 °FMild.1 mph94%30.12 "Hg2 mi
3:20 AM63 °FMild.1 mph94%30.12 "Hg2 mi
2:20 AM66 °FMild.1 mph88%30.12 "Hg4 mi
1:20 AM66 °FMild.3 mph88%30.12 "Hg4 mi
12:20 AM70 °FMild.1 mph83%30.12 "Hg4 mi
11:20 PM
Fri, Aug 26
72 °FMild.2 mph78%30.12 "Hg4 mi
10:20 PM72 °FMild.2 mph78%30.12 "Hg4 mi
9:20 PM75 °FMild.3 mph65%30.12 "Hg4 mi
8:20 PM81 °FWarm.3 mph54%30.09 "Hg2 mi
7:20 PM84 °FWarm.7 mph48%30.09 "HgN/A
6:20 PM86 °FPassing clouds.5 mph46%30.09 "HgN/A
5:20 PM88 °FPassing clouds.2 mph40%30.09 "HgN/A
4:20 PM88 °FPassing clouds.2 mph43%30.09 "HgN/A
3:20 PM86 °FPassing clouds.5 mph43%30.12 "HgN/A
2:20 PM86 °FPassing clouds.3 mph46%30.12 "HgN/A
1:20 PM84 °FPassing clouds.3 mph48%30.12 "HgN/A
12:20 PM82 °FWarm.6 mph55%30.12 "HgN/A
11:20 AM77 °FWarm.6 mph65%30.12 "HgN/A
10:20 AM72 °FMild.6 mph73%30.12 "HgN/A
Weather by CustomWeather, © 2016

See weather overviewHow to use our weather pages